Location: Montreal
(45.5000°N, 73.5833°W)
Time: 04:51:35
(UTC-04:00)

Tiangong 1 - Pass Details

Date: 08 October 2017
Orbit: 293 x 320 km, 42.8° (Epoch: 19 October)

Event Time Altitude Azimuth Distance (km) Brightness Sun altitude
Rises 18:58:55 0° 242° (WSW) 2,038 6.0 -7.5°
Reaches altitude 10° 19:01:01 10° 231° (SW) 1,204 4.4 -7.8°
Maximum altitude 19:03:28 31° 166° (SSE) 573 1.8 -8.3°
Enters shadow 19:05:33 12° 104° (ESE) 1,066 2.7 -8.6°
